Location: Broke Rock
(32.1629°N, 97.4558°W)
Time: 23:32:09
(UTC+00:00)

Daily predictions for brighter satellites

Satellite Brightness Start Highest point End
(mag) Time Altitude Azimuth Time Altitude Azimuth Time Altitude Azimuth
Cosmos 2082 Rocket 4.1 12:06:06 11° NNW 12:06:06 11° NNW 12:06:34 10° NNW
BREEZE-M DEB (TANK) 2.5 12:00:27 11° SW 12:03:57 79° NW 12:06:17 10° NE
SL-24 R/B 4.5 12:00:06 10° N 12:04:58 47° WNW 12:09:13 10° SSW
Cosmos 1892 Rocket 3.9 12:04:44 10° SSW 12:08:50 41° W 12:13:00 10° N
SL-16 R/B 2.9 12:04:11 10° N 12:09:44 55° ENE 12:15:15 10° SE
SWAS 4.2 12:07:26 15° NNW 12:10:43 82° WSW 12:14:43 10° SSE
Cosmos 1937 Rocket 3.4 12:08:32 10° NNW 12:13:37 70° WSW 12:18:42 10° S
COSMO-SKYMED 1 2.4 12:19:08 10° S 12:23:12 63° W 12:27:17 10° NNW
OAO 2 Rocket 3.4 12:20:47 10° WSW 12:25:59 85° SSE 12:31:05 10° ENE
Cosmos-2242 2.9 12:24:11 10° N 12:28:25 89° ENE 12:32:34 10° S
Cosmos 1092 Rocket 4.2 12:23:39 10° SSW 12:29:41 47° W 12:35:42 10° N
Cosmos 1980 Rocket 3.7 12:28:37 13° WNW 12:30:25 15° W 12:33:33 10° SW
IRIDIUM 114 4.5 12:25:53 10° S 12:31:05 81° E 12:36:19 10° N
Cosmos 1814 Rocket 4.0 12:26:02 10° SSW 12:31:09 60° WNW 12:36:21 10° N
Cosmos 2278 3.9 12:27:49 10° NNW 12:33:28 77° ENE 12:39:05 10° SSE
ATLAS 2AS CENTAUR R/B 3.0 12:28:53 10° SSW 12:36:02 81° ESE 12:43:00 10° NNE
Cosmos 1553 Rocket 4.4 12:30:00 10° N 12:36:23 71° E 12:42:45 10° SSE
CZ-2D R/B 4.3 12:35:42 10° NNE 12:38:43 40° E 12:41:42 10° S
Cosmos 405 Rocket 2.2 12:35:35 10° SSW 12:38:46 60° W 12:42:00 10° N
IRIDIUM 103 4.3 12:35:02 10° S 12:40:14 81° W 12:45:28 10° N
Centaur AC-119 3.9 12:35:03 10° WSW 12:40:18 42° S 12:44:58 10° ESE
CBERS-1 4.0 12:37:58 10° N 12:43:00 65° WNW 12:48:00 10° SSW
Cosmos 1602 Rocket 4.2 12:38:42 10° S 12:43:04 63° E 12:47:27 10° NNE
CORIOLIS 4.4 12:37:48 10° NNE 12:43:12 76° ESE 12:48:36 10° S
COSMOS 2455 3.7 12:38:59 10° NW 12:44:13 31° WSW 12:49:24 10° SSW
CZ-3 R/B 3.6 12:34:00 10° W 12:46:01 26° SW 12:51:25 10° S
Tiangong -2.0 12:46:40 10° WNW 12:49:52 74° SSW 12:53:05 10° SE
OAO 3 Copernicus 4.4 12:46:01 10° W 12:51:00 63° N 12:55:58 10° ENE
Cosmos 2058 Rocket 3.5 12:47:02 10° NNW 12:51:11 41° W 12:55:18 10° SSW
MOS 1 Rocket 4.3 12:49:06 10° NNE 12:54:23 60° E 12:59:29 10° S
Cosmos 1833 4.4 12:51:11 10° SW 12:56:36 49° WNW 13:02:05 10° N
Cosmos 1980 Rocket 3.2 23:44:11 10° SSE 23:48:51 27° ESE 23:53:31 10° NE
Cosmos 2208 Rocket 4.1 23:43:54 10° N 23:49:00 56° ENE 23:54:05 10° SSE
Hubble Space Telescope 2.6 23:48:08 10° SSW 23:50:52 19° SSE 23:53:35 10° ESE
Intercosmos 24 3.9 23:47:30 10° N 23:51:03 77° W 23:54:49 10° S
